TimeMDT,TemperatureF,Dew PointF,Humidity,Sea Level PressureIn,VisibilityMPH,Wind Direction,Wind SpeedMPH,Gust SpeedMPH,PrecipitationIn,Events,Conditions,WindDirDegrees,DateUTC
12:53 AM,68.0,45.0,43,30.02,10.0,WNW,6.9,-,N/A,,Clear,300,2013-07-10 06:53:00
1:53 AM,66.9,46.0,47,30.01,10.0,NW,6.9,-,N/A,,Clear,310,2013-07-10 07:53:00
2:53 AM,64.0,46.0,52,30.01,10.0,West,6.9,-,N/A,,Clear,280,2013-07-10 08:53:00
3:53 AM,64.9,45.0,48,30.01,10.0,WSW,8.1,-,N/A,,Clear,250,2013-07-10 09:53:00
4:53 AM,63.0,44.1,50,30.01,10.0,WSW,11.5,-,N/A,,Clear,240,2013-07-10 10:53:00
5:53 AM,61.0,42.1,50,30.02,10.0,West,10.4,-,N/A,,Clear,260,2013-07-10 11:53:00
6:53 AM,64.0,42.1,45,30.03,10.0,WSW,9.2,-,N/A,,Clear,240,2013-07-10 12:53:00
7:53 AM,64.9,46.0,50,30.04,9.0,ESE,3.5,-,N/A,,Clear,120,2013-07-10 13:53:00
8:53 AM,72.0,48.9,44,30.03,9.0,Calm,Calm,-,N/A,,Clear,0,2013-07-10 14:53:00
9:53 AM,75.9,50.0,40,30.01,9.0,Variable,4.6,-,N/A,,Clear,0,2013-07-10 15:53:00
10:53 AM,80.1,48.0,32,29.99,10.0,Calm,Calm,-,N/A,,Clear,0,2013-07-10 16:53:00
11:53 AM,82.0,50.0,33,29.97,10.0,SE,4.6,-,N/A,,Clear,130,2013-07-10 17:53:00
1:53 PM,91.9,42.1,18,29.90,10.0,Calm,Calm,-,N/A,,Clear,0,2013-07-10 19:53:00
2:53 PM,93.0,35.1,13,29.88,10.0,NNE,9.2,-,N/A,,Clear,20,2013-07-10 20:53:00
3:53 PM,95.0,33.1,11,29.86,10.0,Variable,3.5,-,N/A,,Clear,0,2013-07-10 21:53:00
4:53 PM,93.0,30.9,11,29.84,10.0,Calm,Calm,-,N/A,,Clear,0,2013-07-10 22:53:00
5:53 PM,93.0,27.0,9,29.83,10.0,Variable,4.6,-,N/A,,Clear,0,2013-07-10 23:53:00
6:53 PM,89.1,34.0,14,29.81,10.0,NE,5.8,-,N/A,,Clear,50,2013-07-11 00:53:00
7:53 PM,87.1,36.0,16,29.82,9.0,West,4.6,-,N/A,,Clear,260,2013-07-11 01:53:00
8:53 PM,80.1,36.0,20,29.82,9.0,WSW,13.8,-,N/A,,Clear,240,2013-07-11 02:53:00
9:53 PM,78.1,32.0,19,29.83,10.0,WSW,15.0,-,N/A,,Clear,250,2013-07-11 03:53:00
10:53 PM,73.9,33.1,22,29.83,10.0,South,3.5,-,N/A,,Clear,190,2013-07-11 04:53:00
11:30 PM,73.4,32.0,22,30.07,10.0,WSW,12.7,-,N/A,,Clear,250,2013-07-11 05:30:00
11:53 PM,73.9,30.9,21,29.84,10.0,SSE,10.4,20.7,N/A,,Clear,150,2013-07-11 05:53:00